This demonstration page uses our WeatherBlox Daily Observations layout. Learn more.

Left ArrowRight Arrow

34.02893, -84.19858

Hourly Observations for August 26, 2020

Temp ( °F °C ) Dew Point ( °F °C ) Humidity (%) Winds ( mph kmh ) Pressure ( in mb ) Visibility ( mi km ) Precip ( " mm )
12:43 am 00:43 Cloudy 74 23.3 74 23.3 100 100 Calm 30.10 1019 9 14 0.00 0.00
12:53 am 00:53 Cloudy 74 23.3 74 23.3 100 100 Calm 30.10 1019 9 14 0.00 0.00
1:53 am 01:53 Clear 73 22.8 73 22.8 100 100 Calm 30.09 1019 10 16 0.00 0.00
2:53 am 02:53 Clear 73 22.8 73 22.8 100 100 Calm 30.08 1019 10 16 0.00 0.00
3:53 am 03:53 Mostly Clear 73 22.8 73 22.8 100 100 Calm 30.06 1018 7 11 0.00 0.00
4:53 am 04:53 Clear 73 22.8 73 22.8 100 100 Calm 30.06 1018 9 14 0.00 0.00
5:35 am 05:35 Mostly Cloudy 73 22.8 73 22.8 100 100 Calm 30.07 1018 9 14 0.00 0.00
5:53 am 05:53 Cloudy 73 22.8 73 22.8 100 100 Calm 30.06 1018 10 16 0.00 0.00
6:21 am 06:21 Cloudy 73 22.8 73 22.8 100 100 Calm 30.07 1018 9 14 0.00 0.00
6:53 am 06:53 Cloudy 73 22.8 73 22.8 100 100 Calm 30.07 1018 9 14 0.00 0.00
7:53 am 07:53 Cloudy 74 23.3 73 22.8 97 97 NNE 5 7 30.08 1019 10 16 0.00 0.00
8:53 am 08:53 Mostly Cloudy 75 23.9 74 23.3 96 96 Calm 30.09 1019 10 16 0.00 0.00
9:00 am 09:00 Mostly Sunny 75 23.9 73 22.8 94 94 Calm 30.09 1019 10 16 0.00 0.00
9:53 am 09:53 Sunny 77 25 74 23.3 90 90 Calm 30.09 1019 10 16 0.00 0.00
10:53 am 10:53 Mostly Cloudy 79 26.1 74 23.3 85 85 Calm 30.10 1019 10 16 0.00 0.00
11:53 am 11:53 Mostly Cloudy 82 27.8 76 24.4 82 82 VRB 5 7 30.09 1019 10 16 0.00 0.00
12:24 pm 12:24 Mostly Cloudy 83 28.3 76 24.4 79 79 VRB 3 6 30.09 1019 10 16 0.00 0.00
12:53 pm 12:53 Mostly Cloudy 84 28.9 76 24.4 77 77 WSW 5 7 30.08 1019 10 16 0.00 0.00
1:53 pm 13:53 Mostly Cloudy 86 30 77 25 75 75 SSW 5 7 30.06 1018 10 16 0.00 0.00
2:20 pm 14:20 Mostly Cloudy 86 30 76 24.4 72 72 SSW 6 9 30.05 1018 10 16 0.00 0.00
2:30 pm 14:30 Partly Cloudy 86 30 76 24.4 72 72 Calm 30.04 1017 10 16 0.00 0.00
2:41 pm 14:41 Mostly Cloudy 88 31.1 77 25 70 70 VRB 6 9 30.04 1017 10 16 0.00 0.00
2:53 pm 14:53 Mostly Cloudy 87 30.6 76 24.4 70 70 VRB 5 7 30.04 1017 10 16 0.00 0.00
3:53 pm 15:53 Mostly Cloudy 88 31.1 76 24.4 68 68 N 8 13 30.02 1017 10 16 0.00 0.00
4:00 pm 16:00 Sunny 87 30.6 75 23.9 67 67 NNW 6 9 30.02 1017 10 16 0.00 0.00
4:13 pm 16:13 Sunny with Nearby Thunderstorms 87 30.6 75 23.9 67 67 N 9 15 30.02 1017 10 16 0.00 0.00
4:53 pm 16:53 Mostly Cloudy with Nearby Thunderstorms 81 27.2 71 21.7 72 72 VRB 3 6 30.04 1017 10 16 0.00 0.00
5:02 pm 17:02 Partly Cloudy 82 27.8 72 22.2 72 72 VRB 6 9 30.03 1017 10 16 0.00 0.00
5:16 pm 17:16 Partly Cloudy with Nearby Thunderstorms 82 27.8 71 21.7 69 69 VRB 3 6 30.04 1017 10 16 0.00 0.00
5:31 pm 17:31 Mostly Sunny 84 28.9 72 22.2 67 67 VRB 5 7 30.02 1017 10 16 0.00 0.00
5:53 pm 17:53 Mostly Sunny 84 28.9 72 22.2 67 67 E 3 6 30.02 1017 10 16 0.00 0.00
6:53 pm 18:53 Sunny 82 27.8 74 23.3 77 77 Calm 30.02 1017 10 16 0.00 0.00
7:53 pm 19:53 Sunny 79 26.1 72 22.2 79 79 VRB 3 6 30.04 1017 10 16 0.00 0.00
8:53 pm 20:53 Clear 76 24.4 72 22.2 88 88 Calm 30.04 1017 10 16 0.00 0.00
9:53 pm 21:53 Clear 74 23.3 73 22.8 97 97 Calm 30.06 1018 10 16 0.00 0.00
10:53 pm 22:53 Clear 73 22.8 72 22.2 96 96 Calm 30.06 1018 10 16 0.00 0.00
11:53 pm 23:53 Clear 72 22.2 71 21.7 97 97 Calm 30.05 1018 10 16 0.00 0.00

Powered by AerisWeather